Wind_Speed
28 29 29 30 30 31 31 32 32 33 34 34 35 35 36 37 37 38 39 40 40 41 41 42 43 43 44 45 45 46 46 47 47 48 48 48 48 48 48 47 47 46 46
29 30 30 31 31 31 32 32 33 34 35 35 36 36 37 38 39 39 40 41 41 42 42 43 43 44 45 46 46 47 47 48 48 48 49 49 50 50 50 50 50 50 49
30 31 31 31 31 32 33 33 34 35 35 36 36 37 38 39 40 41 41 42 43 43 44 44 45 45 46 46 47 47 48 48 49 49 50 50 51 51 51 52 52 52 52
30 31 31 32 32 33 34 34 35 36 37 37 38 39 39 40 41 42 43 43 44 45 45 46 46 47 47 48 48 49 49 49 50 50 51 51 51 51 52 52 53 53 53
31 31 32 33 33 34 35 35 36 37 38 39 39 40 41 42 43 43 44 45 46 46 47 48 48 48 49 49 50 50 51 51 51 52 52 52 52 53 53 53 54 54 54
32 32 33 34 34 35 36 37 38 39 40 40 40 41 42 43 44 44 45 46 47 48 49 49 50 50 51 51 51 52 52 52 53 53 53 54 54 54 55 55 56 56 56
33 34 34 35 36 37 38 39 40 41 41 42 42 42 43 44 44 45 46 47 48 49 50 50 51 52 52 53 53 54 54 55 55 55 56 56 57 57 57 57 58 58 58
34 35 36 37 38 39 40 40 41 42 43 44 44 44 43 43 45 46 47 49 50 51 52 52 53 54 54 55 56 56 57 57 57 58 59 59 60 60 60 61 61 61 61
35 36 37 38 39 40 41 42 43 44 44 46 47 47 46 45 45 45 47 49 50 52 53 54 55 56 57 58 58 59 59 60 61 61 62 62 63 63 64 64 64 65 65
37 38 39 40 41 42 43 44 45 45 46 47 48 49 50 50 49 47 46 48 50 52 54 55 56 58 59 60 61 61 62 63 64 65 66 66 67 67 68 68 68 69 69
39 40 41 42 43 44 45 46 46 47 48 48 49 50 51 52 53 53 50 50 51 53 55 56 57 58 60 61 62 63 64 65 66 67 68 69 69 70 71 71 72 72 72
41 42 43 44 45 46 47 47 48 49 49 50 51 52 52 53 54 55 55 55 54 54 56 57 59 60 62 63 64 65 66 67 68 69 70 70 71 72 73 74 75 75 75
43 44 45 46 47 48 48 49 49 50 51 52 52 53 54 55 56 58 58 58 58 57 57 58 60 62 64 65 66 67 68 69 70 71 72 73 74 74 75 76 77 78 78
45 46 47 48 48 49 49 50 51 51 52 53 54 55 56 57 59 60 61 61 61 60 60 61 63 64 66 67 68 69 70 71 73 74 75 75 76 76 77 78 78 79 79
46 47 48 49 49 50 51 51 52 53 54 54 55 56 57 59 60 61 62 64 65 64 63 63 65 66 68 69 70 71 72 73 74 75 76 77 77 77 77 77 77 78 78
47 48 49 50 51 51 52 53 54 54 55 56 57 58 59 60 61 63 64 65 67 68 68 67 68 69 70 71 72 73 73 74 74 75 75 75 75 75 75 75 74 74 74
49 49 50 51 52 53 54 54 55 56 56 57 59 60 60 62 63 64 66 67 68 69 70 69 70 71 73 74 74 75 75 75 74 73 72 72 71 71 70 70 69 69 69
50 51 52 53 54 54 55 56 56 57 58 59 60 61 62 64 65 66 67 68 69 71 72 71 71 73 74 75 76 76 76 75 73 71 70 68 67 66 65 64 64 63 63
52 53 54 55 55 56 56 57 58 59 60 61 62 63 64 66 66 67 68 69 71 72 74 74 74 75 76 77 76 75 74 72 71 69 67 65 64 62 60 59 58 57 57
54 55 55 56 57 57 58 59 60 61 62 63 64 65 66 67 68 69 70 71 73 74 76 77 77 77 76 76 75 73 70 68 66 64 63 61 59 56 54 53 52 52 52
55 55 56 58 59 59 60 61 62 63 64 65 65 67 68 69 70 71 72 73 75 76 77 78 78 77 75 73 71 69 66 63 60 59 57 55 53 51 51 50 49 49 49
55 57 58 59 60 61 62 63 65 65 66 67 68 69 70 71 72 73 75 76 78 79 79 79 78 75 72 69 66 63 61 58 54 53 52 49 49 47 47 46 45 45 45
57 58 59 60 61 63 64 66 67 68 69 70 71 72 73 74 75 76 77 78 78 79 79 78 75 71 67 63 61 58 55 53 50 48 47 45 45 44 43 43 42 41 40
58 59 61 62 63 65 67 68 69 71 71 73 74 75 75 76 77 78 78 77 76 76 75 73 69 65 61 58 56 53 51 48 46 45 44 41 40 40 40 40 38 37 37
60 61 62 64 66 67 69 71 73 74 74 75 75 76 76 77 77 78 77 76 74 72 69 66 63 59 56 53 52 50 47 45 42 40 40 39 37 37 36 36 35 35 34
62 63 65 67 68 70 72 74 75 76 76 76 76 76 76 77 76 76 76 75 72 68 64 61 57 54 52 50 48 46 44 42 39 36 36 36 34 34 32 32 33 33 33
Wind_Direction
293 294 294 294 294 293 293 292 292 291 290 290 289 288 287 286 285 285 283 282 281 280 279 278 277 276 276 275 274 274 273 272 272 271 271 270 270 269 269 268 268 268 267
293 293 293 294 294 294 293 293 293 293 292 291 290 289 288 287 286 285 284 283 282 281 280 279 279 278 277 276 275 275 274 274 273 272 272 271 270 270 269 268 268 267 267
292 293 293 293 293 293 294 294 294 293 293 292 292 291 290 289 288 287 286 285 284 283 282 281 280 279 278 277 276 276 275 274 274 273 273 272 271 271 270 269 268 268 267
292 292 292 292 293 292 292 293 293 292 292 292 292 291 290 290 289 288 287 287 286 285 284 283 282 281 279 278 277 277 276 275 274 273 273 272 272 271 270 270 269 268 267
291 292 292 292 292 292 292 292 292 291 291 291 291 290 290 290 289 288 288 287 286 285 285 284 283 282 281 280 279 278 277 276 275 274 273 272 272 271 270 270 269 268 268
291 291 292 292 292 292 292 292 292 291 291 290 290 290 289 289 289 288 288 287 287 286 285 284 284 283 282 281 280 279 278 277 276 275 274 273 272 271 271 270 269 268 268
292 292 293 293 293 293 293 293 293 292 292 291 290 289 289 289 288 288 288 287 287 287 286 285 284 283 282 282 281 280 279 278 277 276 275 274 273 272 271 270 269 268 268
293 293 294 294 294 294 294 294 293 293 293 292 291 290 289 289 289 289 289 289 288 288 287 287 286 285 284 283 282 281 280 279 278 277 276 275 274 273 272 270 269 268 268
293 294 294 295 295 295 295 295 295 295 295 294 293 292 290 288 286 287 287 288 288 288 288 287 286 286 285 284 283 282 281 280 279 278 277 276 275 274 273 271 270 269 268
294 295 295 296 297 297 297 297 296 296 296 295 294 294 293 292 290 287 286 286 286 286 286 286 285 285 284 284 283 282 282 281 280 279 278 277 276 275 274 273 271 270 269
295 296 297 298 298 298 298 298 298 297 297 296 296 295 294 294 293 292 290 288 287 287 287 287 286 285 285 284 283 283 282 281 280 279 278 278 277 276 274 273 272 271 269
296 297 298 298 298 299 299 299 299 298 298 298 297 296 296 295 294 293 292 291 289 289 289 288 288 287 286 285 284 283 282 282 281 280 279 278 277 276 275 274 272 271 270
297 298 298 299 299 300 300 300 300 300 299 299 298 298 297 296 295 295 294 293 292 291 290 290 290 289 288 287 286 285 284 283 282 281 280 279 277 276 275 274 272 271 270
298 299 299 300 300 301 301 301 301 300 300 299 299 298 298 297 297 296 296 295 294 293 292 292 291 291 290 290 289 288 287 285 284 283 282 280 279 277 276 274 273 271 270
299 299 300 300 301 301 301 301 301 300 300 299 299 299 298 298 298 298 297 297 296 295 294 293 293 292 292 291 291 290 289 288 287 285 284 282 281 279 277 275 274 272 270
299 300 300 301 301 301 301 301 301 301 300 300 300 299 299 299 299 298 298 298 298 297 296 296 295 294 294 293 292 292 291 290 289 287 286 284 282 280 278 276 274 273 271
300 300 301 301 301 302 302 302 302 301 301 300 300 300 300 299 299 299 299 299 298 298 297 297 297 296 296 295 294 294 293 291 290 289 287 285 283 281 279 277 275 273 271
300 301 301 301 302 302 302 302 302 302 302 301 301 301 301 300 300 300 299 299 299 298 298 298 298 297 297 296 295 294 293 292 291 289 287 286 284 281 279 277 275 273 271
301 301 302 302 302 302 303 303 303 303 303 302 302 301 301 301 301 300 300 300 299 299 299 299 299 298 297 297 295 294 293 291 290 289 288 286 284 281 279 277 275 272 271
302 302 302 302 303 303 303 303 303 303 304 303 303 302 302 302 301 301 301 300 300 300 300 300 300 299 298 297 295 293 292 290 289 288 287 285 283 281 279 276 274 272 271
302 302 303 303 303 303 303 303 303 304 304 304 303 303 303 302 302 301 301 301 301 301 301 301 300 299 298 296 294 293 291 290 289 287 285 284 282 281 278 276 274 272 271
302 303 303 303 303 303 303 304 304 304 304 304 303 303 303 303 302 302 302 302 302 302 302 301 300 299 297 295 294 292 291 289 288 286 284 283 281 280 278 276 274 273 271
303 303 303 303 304 304 304 304 305 304 304 304 304 303 303 303 302 302 302 302 303 303 302 301 300 299 297 295 293 292 290 289 288 285 283 281 280 279 277 275 274 272 270
303 303 304 304 304 304 305 305 304 304 305 305 304 304 303 303 303 303 303 303 303 303 301 300 300 298 296 295 293 292 290 289 288 286 283 280 278 278 276 275 273 271 269
304 304 304 305 305 305 305 305 305 305 305 305 304 304 304 304 304 303 303 303 303 302 300 299 298 297 295 294 292 291 290 289 288 285 283 281 278 276 275 273 271 269 268
304 304 305 306 306 306 305 305 305 305 305 305 305 305 305 304 304 304 304 304 303 301 299 298 297 296 294 293 292 291 290 289 287 284 282 281 279 275 272 271 270 269 268
Height
5827 5826 5824 5822 5821 5819 5817 5816 5814 5812 5811 5809 5808 5807 5805 5804 5802 5801 5799 5798 5797 5796 5795 5794 5793 5793 5792 5792 5791 5791 5791 5791 5791 5791 5791 5791 5791 5792 5792 5793 5794 5794 5795
5822 5820 5818 5816 5814 5813 5811 5809 5807 5805 5804 5802 5800 5799 5797 5795 5793 5792 5790 5789 5787 5786 5785 5784 5783 5783 5782 5781 5780 5780 5780 5780 5779 5779 5779 5780 5780 5780 5781 5781 5782 5783 5784
5816 5814 5812 5810 5808 5806 5804 5802 5800 5798 5796 5795 5793 5791 5789 5787 5785 5783 5781 5779 5777 5776 5775 5774 5773 5772 5771 5770 5769 5769 5768 5768 5768 5767 5767 5767 5768 5768 5768 5769 5769 5770 5771
5810 5808 5806 5804 5802 5800 5798 5796 5794 5791 5789 5787 5785 5783 5780 5778 5776 5774 5771 5769 5768 5766 5764 5763 5762 5760 5759 5758 5758 5757 5756 5756 5755 5755 5755 5755 5755 5755 5755 5756 5756 5757 5758
5804 5802 5799 5797 5795 5793 5791 5789 5786 5784 5782 5779 5777 5775 5772 5770 5767 5764 5762 5760 5758 5756 5754 5752 5750 5749 5748 5746 5745 5744 5744 5743 5742 5742 5742 5742 5742 5742 5742 5742 5743 5743 5744
5797 5795 5793 5790 5788 5786 5783 5781 5778 5776 5773 5771 5769 5766 5763 5761 5757 5755 5752 5749 5747 5745 5743 5741 5739 5737 5735 5734 5733 5732 5730 5730 5729 5728 5728 5728 5728 5728 5728 5728 5729 5729 5730
5790 5788 5785 5783 5780 5778 5775 5772 5770 5767 5764 5762 5760 5758 5755 5751 5748 5745 5742 5739 5736 5734 5731 5729 5727 5725 5723 5721 5719 5718 5717 5716 5715 5714 5713 5713 5713 5713 5713 5713 5714 5714 5715
5783 5781 5778 5775 5772 5769 5766 5764 5761 5757 5754 5751 5749 5747 5746 5743 5739 5735 5731 5728 5724 5721 5719 5716 5714 5711 5709 5707 5705 5703 5702 5701 5700 5699 5698 5697 5697 5697 5697 5697 5698 5698 5699
5776 5773 5770 5767 5764 5761 5757 5754 5751 5747 5744 5741 5737 5735 5733 5732 5730 5727 5722 5717 5713 5710 5706 5703 5700 5697 5694 5692 5690 5688 5686 5685 5683 5682 5681 5680 5680 5679 5679 5679 5680 5681 5682
5768 5765 5762 5758 5755 5751 5748 5744 5740 5737 5733 5730 5726 5722 5719 5716 5714 5715 5713 5707 5703 5698 5694 5691 5687 5683 5679 5677 5675 5672 5670 5668 5666 5664 5663 5662 5661 5660 5660 5660 5660 5661 5662
5759 5756 5753 5749 5745 5742 5738 5734 5730 5726 5722 5718 5714 5710 5707 5703 5698 5697 5697 5695 5690 5686 5681 5677 5672 5668 5664 5661 5658 5655 5653 5650 5648 5646 5644 5642 5641 5640 5640 5639 5639 5640 5641
5750 5747 5743 5739 5735 5731 5727 5723 5719 5715 5710 5706 5702 5698 5693 5690 5685 5681 5680 5678 5676 5672 5667 5662 5656 5652 5648 5644 5641 5637 5634 5632 5629 5626 5624 5622 5621 5619 5618 5617 5617 5617 5618
5741 5737 5733 5729 5725 5721 5716 5712 5707 5703 5698 5694 5689 5684 5680 5675 5671 5667 5663 5660 5658 5656 5652 5647 5640 5634 5629 5625 5621 5618 5615 5611 5608 5605 5603 5600 5598 5597 5595 5594 5593 5593 5594
5732 5728 5723 5719 5714 5710 5705 5700 5696 5691 5686 5681 5676 5671 5666 5661 5656 5651 5646 5643 5640 5639 5635 5630 5623 5616 5610 5606 5601 5597 5593 5589 5586 5582 5579 5577 5574 5572 5571 5569 5569 5568 5568
5722 5717 5713 5708 5703 5699 5694 5689 5684 5679 5674 5668 5663 5658 5652 5647 5641 5635 5630 5625 5621 5618 5617 5612 5605 5598 5591 5586 5580 5575 5571 5566 5562 5558 5555 5551 5549 5546 5544 5543 5542 5542 5542
5711 5707 5702 5697 5692 5687 5682 5677 5671 5666 5661 5655 5649 5644 5638 5632 5626 5620 5614 5608 5601 5596 5594 5592 5584 5577 5570 5564 5558 5553 5548 5543 5538 5534 5530 5526 5523 5521 5519 5517 5517 5516 5516
5700 5695 5690 5685 5680 5675 5669 5664 5658 5653 5647 5641 5635 5629 5623 5616 5610 5604 5597 5590 5584 5577 5573 5571 5564 5556 5549 5542 5536 5530 5524 5519 5514 5509 5505 5502 5499 5496 5494 5493 5492 5492 5492
5689 5683 5678 5673 5668 5662 5656 5651 5645 5639 5633 5627 5620 5614 5607 5600 5594 5587 5579 5573 5565 5558 5552 5549 5545 5536 5529 5521 5514 5508 5501 5495 5490 5486 5482 5478 5475 5473 5471 5470 5469 5469 5470
5676 5671 5666 5660 5654 5649 5643 5637 5631 5625 5618 5612 5605 5598 5591 5583 5577 5569 5561 5554 5547 5539 5531 5526 5522 5515 5507 5498 5491 5485 5479 5473 5468 5463 5460 5456 5454 5451 5450 5449 5449 5449 5450
5664 5658 5653 5647 5641 5635 5629 5622 5616 5610 5603 5596 5588 5581 5573 5565 5558 5550 5543 5535 5527 5519 5511 5504 5499 5492 5485 5476 5468 5462 5458 5453 5448 5443 5439 5436 5433 5432 5431 5430 5430 5430 5431
5651 5645 5639 5633 5627 5620 5614 5607 5601 5594 5587 5580 5572 5564 5556 5547 5539 5531 5523 5515 5507 5499 5490 5482 5475 5469 5462 5454 5447 5440 5436 5433 5430 5424 5421 5418 5416 5414 5413 5412 5413 5413 5414
5638 5632 5626 5619 5612 5605 5598 5591 5584 5578 5571 5563 5555 5547 5538 5529 5520 5511 5503 5494 5485 5475 5467 5459 5453 5446 5440 5432 5426 5421 5416 5414 5412 5408 5404 5403 5399 5399 5397 5396 5396 5397 5397
5625 5618 5611 5605 5598 5590 5582 5575 5567 5560 5553 5545 5536 5528 5519 5510 5500 5491 5483 5474 5464 5453 5444 5436 5430 5424 5418 5412 5406 5403 5399 5396 5394 5391 5388 5388 5385 5384 5382 5382 5382 5382 5383
5611 5604 5597 5590 5582 5574 5566 5558 5550 5542 5535 5526 5517 5507 5498 5490 5479 5469 5462 5454 5445 5435 5424 5415 5409 5404 5398 5393 5388 5385 5382 5380 5379 5376 5373 5373 5372 5370 5369 5368 5368 5369 5370
5597 5589 5582 5574 5566 5558 5549 5540 5531 5524 5516 5507 5498 5487 5477 5468 5459 5448 5439 5432 5426 5416 5406 5397 5391 5385 5381 5376 5372 5369 5367 5365 5365 5363 5359 5359 5359 5358 5357 5357 5356 5357 5358
5582 5574 5567 5558 5549 5541 5531 5522 5512 5503 5496 5488 5479 5468 5457 5446 5437 5427 5417 5410 5403 5396 5388 5382 5375 5370 5365 5361 5357 5354 5353 5351 5350 5350 5348 5346 5346 5345 5347 5347 5346 5346 5348